Weather in Yushkovo

Russia / Mari El Republic     56°42′43″N   48°05′04″E
В апреле 2022 года жителям России запретили посещать сайт meteo.paraplan.net по решению Генеральной прокуратуры. Аудитория сайта уменьшилась в 10 раз. Владельцы сайта не видят смысла в поддержке погодного сервера в таких условиях. Сайт будет закрыт в октябре.
temp.,
°C
wind,
m/s
gust,
m/s
humid.,
%
clouds,
%
prec.,
mm/h
press.,
hPa
HPBL,
m
29 september, thu
thu2900:00+3ese71694100 3.7 1011628
03:00+3ese61495100 4.9 1011540
06:00+4ese51296100 0.7 1010442
09:00+5ese51196100 2.4 1011456
12:00+5e41096100 1.0 1012412
15:00+6e4996100 1.2 1013397
18:00+6e3896100 0.0 1014332
21:00+6e2597100 0.0 1016240
30 september, fri
fri3000:00+6e2497100 0.1 1018175
03:00+6e2397100 0.1 1019138
06:00+6e2397100 0.1 1021144
09:00+7ese239296 0.1 1022230
12:00+10se2382100 0.0 1023503
15:00+12se347873 0.0 1023658
18:00+9se3792100 0.0 1024228
21:00+6se389775 0.0 1024192
1 october, sat
sat100:00+6se3897100 0.0 1024219
03:00+7se399798 0.0 1023213
06:00+6sse4109734 0.0 1023233
09:00+11sse598247 0.0 1022394
12:00+14s597455 0.0 1021682
15:00+15s5972100 0.0 1019846
18:00+13sse51284100 2.1 1019506
21:00+12sse51284100 2.4 1017445
2 october, sun
sun200:00+11sse61596100 2.7 1015576
03:00+12s5119699 2.8 1014463
06:00+12s51095100 0.0 1013383
09:00+12sse51194100 0.1 1012432
12:00+13s61493100 1.2 1011709
15:00+14ssw61296100 6.1 1010708
18:00+14ssw3896100 1.5 1010450
21:00+12sw259837 1.5 1010131
3 october, mon
mon300:00+10w249823 0.0 101181
03:00+10nnw359699 0.0 1013283
06:00+12sse2499100 0.9 1013122
09:00+13s2699100 2.3 1013222
12:00+14sse3593100 0.1 1014258
15:00+17sse4785100 0.1 1015519
18:00+14se3995100 0.1 1016178
21:00+14sse41484100 0.1 1017358